Regional Weather Roundup
Issued by NWS Albany, NY

Home | Current Version | Previous Version | Text Only | Print | Product List | Glossary On
Versions: 1 2 3 4 5 6 7 8 9 10 11 12 13 14 15 16 17 18 19 20 21 22 23 24 25 26 27
000
ASUS41 KALY 161410
RWRALY

NEW YORK STATE HOURLY WEATHER ROUNDUP
NATIONAL WEATHER SERVICE ALBANY NY
1000 AM EDT MON OCT 16 2017

NOTE: "FAIR" INDICATES FEW OR NO CLOUDS BELOW 12,000 FEET WITH NO
SIGNIFICANT WEATHER AND/OR NO OBSTRUCTIONS TO VISIBILITY.

NYZ032-033-038>043-046>054-057>066-NYZ062>081-082-084-161500-
EAST


CITY           SKY/WX    TMP DP  RH WIND       PRES   REMARKS
ALBANY         PTSUNNY   49  38  65 NW13      30.05R
GLENS FALLS    PTSUNNY   49  35  58 N10       30.03R
POUGHKEEPSIE   CLOUDY    53  43  68 NE10      30.01R
NEWBURGH       PTSUNNY   54  43  66 NW17      30.02R
MONTGOMERY     CLOUDY    53  42  66 NW6       30.01R
WHITE PLAINS   PTSUNNY   54  42  64 NW12      29.98R
ISLIP          CLOUDY    60  46  59 NW15G21   29.97R
NEW YORK CITY  CLOUDY    57  43  59 NW16      29.99R
CENTRAL PARK   CLOUDY    56  41  57 MISG      30.03R
$$

NYZ005>009-017-018-044>046-055-056-161500-
CENTRAL


CITY           SKY/WX    TMP DP  RH WIND       PRES   REMARKS
FULTON         RAIN      45  38  76 NW14      30.14R
SYRACUSE       LGT RAIN  44  41  89 NW7       30.12R
ROME           CLOUDY    44  37  76 N8        30.12R
ELMIRA         CLOUDY    47  38  71 NW6       30.13R
BINGHAMTON     CLOUDY    42  40  92 NW10      30.08R
MONTICELLO     CLOUDY    46  37  71 NW18G32   30.05R
$$

NYZ026>034-041>043-087-161500-
NORTH


CITY           SKY/WX    TMP DP  RH WIND       PRES   REMARKS
WATERTOWN      CLOUDY    44  37  76 NW9       30.14R
FORT DRUM      NOT AVBL
OGDENSBURG     PTSUNNY   44  36  74 NW10      30.13R
MASSENA        PTSUNNY   44  36  73 NW9       30.13R
SARANAC LAKE   MIX PCPN  37  35  92 VRB6      30.04R WCI  32
PLATTSBURGH    CLOUDY    45  33  63 NW13      30.07R
$$

NYZ001>004-010>016-019>021-085-161500-
WEST


CITY           SKY/WX    TMP DP  RH WIND       PRES   REMARKS
NIAGARA FALLS  PTSUNNY   47  36  65 N8        30.19R
BUFFALO        PTSUNNY   46  38  73 N9        30.18R
DUNKIRK        PTSUNNY   48  36  63 NW12      30.21R
JAMESTOWN      CLOUDY    44  35  70 NW14      30.18R
WELLSVILLE     CLOUDY    44  35  70 N13       30.14R
ROCHESTER      PTSUNNY   47  36  65 NW14      30.17R
$$

             KEY
       WCI = WIND CHILL INDEX
       VSB = VISIBILITY
       HX  = HEAT INDEX
$$




USA.gov is the U.S. government's official web portal to all federal, state and local government web resources and services.